CW7625 Weather Reports


Display with metric or nautical units.
time (UTC)temp
F
wind
direction
speed
MPH
gust
MPH
rain 1hr
in
rain 24hr
in
rain mn
in
humidity
%
barometer
mb
20260510091107 69 302 0.0 1.0 0.01 0.02 0.01 92 1012.9
20260510090107 69 306 0.0 2.0 0.01 0.03 0.01 92 1012.4
20260510085107 69 306 1.0 3.0 0.00 0.02 0.00 92 1011.8
20260510084107 68 67 0.0 1.0 0.00 0.02 0.00 92 1012.2
20260510083107 69 67 0.0 2.0 0.00 0.02 0.00 92 1012.7
20260510082107 68 67 0.0 1.0 0.00 0.02 0.00 92 1012.3
20260510081107 68 67 0.0 4.0 0.00 0.02 0.00 92 1011.8
20260510080107 68 70 3.0 5.0 0.00 0.02 0.00 92 1011.0
20260510075107 67 118 0.0 0.0 0.00 0.02 0.00 91 1010.8
20260510074107 67 118 0.0 0.0 0.00 0.02 0.00 91 1010.9
20260510073107 67 118 0.0 0.0 0.00 0.02 0.00 91 1010.8
20260510072107 67 118 0.0 0.0 0.00 0.02 0.00 91 1010.3
20260510071107 68 118 0.0 0.0 0.00 0.02 0.00 91 1010.8
20260510070107 68 118 0.0 1.0 0.00 0.02 0.00 90 1010.5
20260510065107 68 118 0.0 1.0 0.00 0.02 0.00 90 1010.8
20260510064107 69 118 0.0 0.0 0.00 0.02 0.00 90 1010.7
20260510062107 70 118 0.0 0.0 0.00 0.02 0.00 89 1011.1
20260510061107 70 118 0.0 1.0 0.00 0.02 0.00 89 1011.0
20260510060107 71 118 0.0 2.0 0.00 0.02 0.00 89 1010.6
20260510055107 71 118 0.0 3.0 0.00 0.02 0.00 89 1010.5
20260510054107 71 110 0.0 7.0 0.00 0.02 0.00 89 1010.6
20260510053107 72 84 0.0 3.0 0.00 0.02 0.00 89 1010.5
20260510051107 72 87 2.0 4.0 0.00 0.02 0.00 89 1009.5
20260510050107 72 91 1.0 4.0 0.00 0.02 0.00 89 1009.8
20260510045107 72 93 2.0 6.0 0.00 0.02 0.02 90 1009.7
20260510044107 72 104 3.0 4.0 0.00 0.02 0.02 90 1009.3
20260510043107 72 88 2.0 6.0 0.00 0.02 0.02 91 1009.2
20260510042107 71 132 0.0 0.0 0.00 0.02 0.02 91 1009.0
20260510041107 71 132 0.0 2.0 0.00 0.02 0.02 90 1008.9
20260510040107 71 132 0.0 1.0 0.00 0.02 0.02 89 1008.7
20260510035107 71 132 0.0 2.0 0.00 0.02 0.02 90 1008.7
20260510034107 71 132 0.0 2.0 0.00 0.02 0.02 90 1008.5
20260510033107 71 132 1.0 2.0 0.00 0.02 0.02 90 1008.4
20260510032107 71 132 0.0 0.0 0.00 0.02 0.02 91 1008.5
20260510030109 70 132 0.0 0.0 0.00 0.02 0.02 90 1008.3
20260510024107 71 132 0.0 0.0 0.00 0.02 0.02 89 1007.9
20260510023107 71 132 0.0 0.0 0.00 0.02 0.02 89 1007.9
20260510021107 72 132 0.0 0.0 0.00 0.02 0.02 88 1007.8
20260510020107 73 132 0.0 0.0 0.00 0.02 0.02 88 1007.6
20260510015107 73 132 0.0 0.0 0.00 0.02 0.02 87 1007.5
20260510013107 74 132 0.0 0.0 0.00 0.02 0.02 86 1007.4
20260510012107 75 132 0.0 0.0 0.00 0.02 0.02 85 1007.3
20260510011107 76 132 0.0 0.0 0.00 0.02 0.02 85 1007.2
20260510010107 77 132 0.0 0.0 0.00 0.02 0.02 84 1007.0
20260510005107 77 132 0.0 0.0 0.00 0.02 0.02 83 1006.9
20260510004107 78 132 0.0 0.0 0.00 0.02 0.02 82 1006.9
20260510002107 80 132 0.0 0.0 0.00 0.02 0.02 80 1006.6
20260510001107 80 132 0.0 0.0 0.00 0.02 0.02 79 1006.5
20260510000107 81 132 0.0 0.0 0.00 0.02 0.02 78 1006.6
20260509235107 81 132 0.0 0.0 0.00 0.02 0.02 76 1006.5
20260509234107 82 132 0.0 1.0 0.00 0.02 0.02 75 1006.6
20260509233107 82 132 0.0 2.0 0.00 0.02 0.02 73 1006.6
20260509232107 83 132 0.0 3.0 0.00 0.02 0.02 70 1006.6
20260509231107 83 132 1.0 3.0 0.00 0.02 0.02 69 1006.6
20260509230107 83 134 2.0 5.0 0.00 0.02 0.02 69 1006.5
20260509224107 82 84 1.0 2.0 0.00 0.02 0.02 71 1006.4
20260509221107 83 94 6.0 8.0 0.00 0.02 0.02 68 1006.4
20260509220107 84 87 1.0 3.0 0.00 0.02 0.02 68 1006.5
20260509215107 85 90 1.0 3.0 0.00 0.02 0.02 67 1006.6
20260509214107 85 89 1.0 4.0 0.00 0.02 0.02 66 1006.6
20260509213107 85 204 1.0 7.0 0.00 0.02 0.02 63 1006.8
20260509212107 85 22 2.0 4.0 0.00 0.02 0.02 65 1006.9
20260509211107 85 117 3.0 5.0 0.00 0.02 0.02 68 1007.0
20260509210107 85 177 0.0 4.0 0.00 0.02 0.02 70 1007.1
20260509205107 84 251 2.0 6.0 0.00 0.02 0.02 69 1007.3
20260509203107 83 271 4.0 6.0 0.00 0.02 0.02 73 1007.4
20260509202107 82 219 3.0 7.0 0.00 0.02 0.02 74 1007.5
20260509201107 81 74 0.0 3.0 0.00 0.02 0.02 80 1007.6
20260509200107 80 74 0.0 0.0 0.00 0.02 0.02 79 1007.8
20260509195107 80 74 0.0 0.0 0.00 0.02 0.02 79 1007.9
20260509194107 80 74 0.0 1.0 0.00 0.02 0.02 77 1008.0
20260509193107 80 74 0.0 4.0 0.00 0.02 0.02 77 1008.0
20260509192107 81 82 4.0 5.0 0.00 0.02 0.02 74 1008.1
20260509185107 81 205 1.0 4.0 0.00 0.02 0.02 72 1008.2
20260509184107 82 48 0.0 2.0 0.00 0.02 0.02 73 1008.2
20260509182107 82 88 4.0 8.0 0.00 0.02 0.02 71 1008.3
20260509181107 82 39 2.0 4.0 0.00 0.02 0.02 75 1008.3
20260509180107 81 211 1.0 3.0 0.00 0.02 0.02 75 1008.4
20260509175107 81 111 2.0 6.0 0.00 0.02 0.02 74 1008.6
20260509174107 80 45 2.0 4.0 0.00 0.02 0.02 78 1008.7
20260509172107 78 238 1.0 4.0 0.00 0.02 0.02 80 1008.7
20260509171107 78 238 0.0 3.0 0.00 0.02 0.02 81 1008.8
20260509164107 77 223 0.0 4.0 0.00 0.02 0.02 81 1008.9
20260509163107 77 292 3.0 5.0 0.00 0.02 0.02 84 1009.0
20260509162107 77 292 0.0 5.0 0.00 0.02 0.02 83 1009.0
20260509161107 77 319 1.0 4.0 0.00 0.02 0.02 84 1008.9
20260509160107 76 101 0.0 3.0 0.00 0.02 0.02 84 1009.0
20260509155107 76 252 1.0 3.0 0.00 0.02 0.02 85 1008.9
20260509154107 74 302 0.0 3.0 0.00 0.02 0.02 87 1008.8
20260509153107 73 302 2.0 3.0 0.00 0.02 0.02 86 1008.9
20260509152107 73 42 2.0 3.0 0.00 0.02 0.02 88 1008.9
20260509151107 72 30 2.0 4.0 0.00 0.02 0.02 89 1009.0
20260509150107 70 40 0.0 0.0 0.00 0.02 0.02 90 1009.0
20260509145107 69 346 0.0 0.0 0.00 0.02 0.02 90 1009.2
20260509144107 69 346 0.0 0.0 0.00 0.02 0.02 90 1009.3
20260509143107 69 346 0.0 0.0 0.00 0.02 0.02 90 1009.3
20260509142107 69 346 0.0 0.0 0.01 0.02 0.02 90 1009.3
20260509141107 68 346 0.0 1.0 0.01 0.02 0.02 90 1009.3
20260509140107 68 346 0.0 1.0 0.01 0.02 0.02 91 1009.3
20260509135107 67 346 0.0 0.0 0.01 0.02 0.02 91 1009.3
20260509134107 67 346 0.0 1.0 0.01 0.02 0.02 91 1009.4
20260509133107 67 346 0.0 3.0 0.01 0.02 0.02 90 1009.4
20260509132107 66 333 0.0 1.0 0.00 0.01 0.01 90 1009.5
20260509131107 66 333 0.0 1.0 0.00 0.01 0.01 90 1009.4
20260509130107 66 333 1.0 2.0 0.00 0.01 0.01 91 1009.4
20260509125107 65 331 0.0 0.0 0.00 0.01 0.01 91 1009.4
20260509124107 65 331 0.0 0.0 0.00 0.01 0.01 91 1009.4
20260509123107 65 331 0.0 0.0 0.00 0.01 0.01 91 1009.2
20260509122107 65 331 0.0 0.0 0.00 0.01 0.01 91 1009.1
20260509121107 65 331 0.0 0.0 0.00 0.01 0.01 91 1009.0
20260509120107 65 331 0.0 0.0 0.00 0.01 0.01 91 1008.8
20260509115107 64 331 0.0 0.0 0.00 0.01 0.01 91 1008.6
20260509114108 64 331 0.0 0.0 0.00 0.01 0.01 91 1008.4
20260509113108 64 331 0.0 0.0 0.00 0.01 0.01 91 1008.1
20260509112107 64 331 0.0 0.0 0.00 0.01 0.01 91 1007.8
20260509103107 64 331 0.0 0.0 0.00 0.01 0.01 91 1007.7
20260509102107 64 331 0.0 0.0 0.00 0.01 0.01 91 1007.9
20260509101107 64 331 0.0 0.0 0.00 0.01 0.01 91 1007.9
20260509100108 64 331 0.0 0.0 0.01 0.01 0.01 91 1007.9
20260509094108 64 331 0.0 0.0 0.01 0.01 0.01 90 1007.8
20260509093107 64 331 0.0 0.0 0.01 0.01 0.01 91 1007.7
20260509092107 64 331 0.0 0.0 0.01 0.01 0.01 91 1007.9